Regional Weather Roundup
Issued by NWS Newport/Morehead, NC

Current Version | Previous Version | Graphics & Text | Print | Product List | Glossary On
Versions: 1 2 3 4 5 6 7 8 9 10 11 12 13 14 15 16 17 18 19 20 21 22 23 24 25 26 27 28 29 30 31 32 33 34 35 36 37 38 39 40 41 42 43 44 45 46 47 48 49 50
381 ASUS42 KMHX 201413 RWRMHX WEATHER ROUNDUP FOR EASTERN NORTH CAROLINA NATIONAL WEATHER SERVICE NEWPORT/MOREHEAD CITY NC 1000 AM EDT FRI OCT 20 2017 NOTE: "FAIR" INDICATES FEW OR NO CLOUDS BELOW 12,000 FEET WITH NO SIGNIFICANT WEATHER AND/OR OBSTRUCTIONS TO VISIBILITY NCZ015>017-031-032-045>047-102-103-201500- NORTH COAST CITY SKY/WX TMP DP RH WIND PRES REMARKS EDENTON SUNNY 65 55 70 CALM 30.25S ELIZABETH CITY SUNNY 66 56 70 NW7 30.25R KITTY HAWK SUNNY 66 66 99 CALM 30.23R MANTEO SUNNY N/A N/A N/A W5 30.24S $$ NCZ045>047-081-094-103-104-201500- CENTRAL COAST CITY SKY/WX TMP DP RH WIND PRES REMARKS FRISCO SUNNY 72 64 76 NW5 30.25R $$ NCZ095-097-098-100-101-201500- SOUTHERN COAST CITY SKY/WX TMP DP RH WIND PRES REMARKS BEAUFORT SUNNY 69 60 73 N5 30.26R CEDAR ISLAND NOT AVBL JACKSONVILLE SUNNY 65 59 81 CALM 30.26R PINEY ISLAND N/A N/A N/A N/A VRB5 30.25R WILMINGTON SUNNY 68 58 70 NW3 30.27R $$ NCZ011>013-027>030-043-044-078>080-089-090>093-098-201500- COASTAL PLAIN CITY SKY/WX TMP DP RH WIND PRES REMARKS AHOSKIE HAZE 56 51 80 N3 30.26R VSB 1/4 CLINTON SUNNY 60 55 83 CALM 30.28S ELIZABETHTOWN NOT AVBL GOLDSBORO SUNNY 63 50 63 W5 30.25S HAZE GREENVILLE SUNNY 57 55 94 NW3 30.26S HAVELOCK SUNNY 68 59 73 CALM 30.27R KENANSVILLE SUNNY 64 52 63 W3 30.27S KINSTON SUNNY 64 52 63 NW3 30.27R NEW BERN SUNNY 67 55 65 W3 30.27S RICHLANDS SUNNY 66 57 72 CALM 30.27S ROCKY MOUNT SUNNY 60 51 72 N7 30.27R WASHINGTON SUNNY 63 52 68 W3 30.26S WHITEVILLE SUNNY 64 52 65 CALM 30.27R $$ AMZ130-135-150-152-154-156-158-170-250-252-270-ANZ085-086-088-633-658-670-201500- MARINE OBSERVATIONS STATION/POSITION TIME TEMP WIND PRES WAVE SWELL AIR SEA DIR/SP/G HT/PER HT/PER (UTC) (F) (DEG/KT/KT) (MB) (FT/S) (FT/S) CHESAPEAKE LIGHT NOT AVBL 64 E VA BEACH 1350 67 68 280/ 10/ 14 1023.7 3/ 9 3/ 9 DUCK 1348 65 69 300/ 6/ 7 1023.7 2 E DUCK 1400 69 N/A 2/ 9 OREGON INLET 1342 67 68 280/ 5/ 6 1023.9 13E OREGON INLT 1348 71 N/A 3/ 8 3/ 8 HATTERAS CG 1348 68 69 330/ 8/ 9 1024.1 DIAMOND BUOY 1350 71 81 340/ 8/ 12 1023.9 3/ 8 3/ 8 CAPE LOOKOUT 1400 68 320/ 7/ 9 1024.2 BEAUFORT LAB 1348 66 71 330/ 3/ 6 1024.8 30 SE NEW RVR IN 1308 73 350/ 8/ 12 1024.0 30 SE NEW RVR IN NOT AVBL 27 SE WRIGHTSVLE 1308 73 75 350/ 8/ 14 1024.1 5 SE WRIGHTSVLE 1308 67 74 350/ 6/ 8 1024.2 225 S CAPE HAT 1350 77 80 30/ 16/ 17 1021.9 6/ 8 3/ 8 41 SE CHARLESTON 1350 75 80 40/ 10/ 14 1023.7 4/ 8 3/ 8 $$

USA.gov is the U.S. government's official web portal to all federal, state and local government web resources and services.